Location: Chervonnoye
(48.6000°N, 34.4000°E)
Time: 17:52:20
(UTC+00:00)

N. Korean satellite - Pass Details

Date: 30 September 2021
Orbit: 450 x 495 km, 97.3° (Epoch: 15 October)

Event Time Altitude Azimuth Distance (km) Brightness Sun altitude
Rises 02:43:10 0° 18° (NNE) 2,542 10.6 -10.3°
Reaches altitude 10° 02:45:17 10° 25° (NNE) 1,666 9.7 -9.9°
Maximum altitude 02:48:44 45° 99° (E) 675 7.9 -9.4°
Drops below altitude 10° 02:52:13 10° 173° (S) 1,674 9.3 -8.8°
Sets 02:54:21 0° 180° (S) 2,556 10.2 -8.4°
